Location: Newark
(16.3678°N, 77.8722°E)
Time: 14:12:41
(UTC+00:00)

Tiros 1 - Pass Details

Date: 12 December 2019
Orbit: 630 x 664 km, 48.4° (Epoch: 29 January)

Event Time Altitude Azimuth Distance (km) Brightness Sun altitude
Rises 08:33:58 0° 309° (NW) 2,906 10.5 42.0°
Reaches altitude 10° 08:36:22 10° 302° (WNW) 1,998 9.8 41.7°
Maximum altitude 08:40:42 43° 231° (SW) 882 10.2 41.0°
Drops below altitude 10° 08:45:04 10° 160° (SSE) 2,000 10.2 40.4°
Sets 08:47:29 0° 153° (SSE) 2,910 10.8 40.0°
